Location: *
(43.4667°N, 11.6833°E)
Time: 13:44:08
(UTC+00:00)

ATLAS 2AS CENTAUR R/B - Pass Details

Date: 19 July 2019
Orbit: 922 x 1290 km, 63.7° (Epoch: 18 August)

Event Time Altitude Azimuth Distance (km) Brightness Sun altitude
Exits shadow 23:37:22 42° 148° (SSE) 1,755 3.4 -25.7°
Maximum altitude 23:39:04 47° 115° (ESE) 1,641 3.4 -25.6°
Drops below altitude 10° 23:46:40 10° 45° (NE) 3,299 5.9 -25.5°
Sets 23:49:36 0° 40° (NE) 4,259 6.7 -25.4°
